QPF
0.00 0.00 0.00 0.00 0.00 0.00 0.00 0.00 0.00 0.00 0.00 0.00 0.00 0.00 0.00 0.00 0.00 0.00 0.00 0.00 0.00 0.00 0.00 0.00 0.00 0.00 0.00 0.00 0.00 0.00 0.00 0.00 0.00 0.00 0.00 0.00 0.00 0.00 0.00 0.00 0.00 0.00 0.00
0.00 0.00 0.00 0.00 0.00 0.00 0.00 0.00 0.00 0.00 0.00 0.00 0.00 0.00 0.00 0.00 0.00 0.00 0.00 0.00 0.00 0.00 0.00 0.00 0.00 0.00 0.00 0.00 0.00 0.00 0.00 0.00 0.00 0.00 0.00 0.00 0.00 0.00 0.00 0.00 0.00 0.00 0.00
0.00 0.00 0.00 0.00 0.00 0.00 0.00 0.00 0.00 0.00 0.00 0.00 0.00 0.00 0.00 0.00 0.00 0.00 0.00 0.00 0.00 0.00 0.00 0.00 0.00 0.00 0.00 0.00 0.00 0.00 0.00 0.00 0.00 0.00 0.00 0.00 0.00 0.00 0.00 0.00 0.00 0.01 0.01
0.00 0.00 0.00 0.00 0.00 0.00 0.00 0.00 0.00 0.00 0.00 0.00 0.00 0.00 0.00 0.00 0.00 0.00 0.00 0.00 0.00 0.00 0.00 0.00 0.00 0.00 0.00 0.00 0.00 0.00 0.00 0.00 0.00 0.00 0.00 0.00 0.00 0.00 0.00 0.00 0.00 0.00 0.00
0.00 0.00 0.00 0.00 0.00 0.00 0.00 0.00 0.00 0.00 0.00 0.00 0.00 0.00 0.00 0.00 0.00 0.00 0.00 0.00 0.00 0.00 0.00 0.00 0.00 0.00 0.00 0.00 0.00 0.00 0.00 0.00 0.00 0.00 0.00 0.00 0.00 0.00 0.00 0.00 0.00 0.00 0.00
0.00 0.00 0.00 0.00 0.00 0.00 0.00 0.00 0.00 0.00 0.00 0.00 0.00 0.00 0.00 0.00 0.00 0.00 0.00 0.00 0.00 0.00 0.00 0.00 0.00 0.00 0.00 0.00 0.00 0.00 0.00 0.00 0.00 0.00 0.00 0.00 0.00 0.00 0.00 0.00 0.00 0.00 0.00
0.00 0.00 0.00 0.00 0.00 0.00 0.00 0.00 0.00 0.00 0.00 0.00 0.00 0.00 0.00 0.00 0.00 0.00 0.00 0.00 0.00 0.00 0.00 0.00 0.00 0.00 0.00 0.00 0.00 0.00 0.00 0.00 0.00 0.00 0.00 0.00 0.00 0.00 0.00 0.00 0.00 0.00 0.02
0.00 0.00 0.00 0.00 0.00 0.00 0.00 0.00 0.00 0.00 0.00 0.00 0.00 0.00 0.00 0.00 0.00 0.00 0.00 0.00 0.00 0.00 0.00 0.00 0.00 0.00 0.00 0.00 0.00 0.00 0.00 0.00 0.00 0.00 0.00 0.00 0.00 0.00 0.00 0.00 0.00 0.00 0.01
0.00 0.00 0.00 0.00 0.00 0.00 0.00 0.00 0.00 0.00 0.00 0.00 0.00 0.00 0.00 0.00 0.00 0.00 0.00 0.00 0.00 0.00 0.00 0.00 0.00 0.00 0.00 0.00 0.00 0.00 0.00 0.00 0.00 0.00 0.00 0.00 0.00 0.00 0.00 0.00 0.00 0.00 0.00
0.00 0.00 0.00 0.00 0.00 0.00 0.00 0.00 0.00 0.00 0.00 0.00 0.00 0.00 0.00 0.00 0.00 0.00 0.00 0.00 0.00 0.00 0.00 0.00 0.00 0.00 0.00 0.00 0.00 0.00 0.00 0.00 0.00 0.00 0.00 0.00 0.00 0.00 0.00 0.00 0.00 0.00 0.00
0.00 0.00 0.00 0.00 0.00 0.00 0.00 0.00 0.00 0.00 0.00 0.00 0.00 0.00 0.00 0.00 0.00 0.00 0.00 0.00 0.00 0.00 0.00 0.00 0.00 0.00 0.00 0.00 0.00 0.00 0.00 0.00 0.00 0.00 0.00 0.00 0.00 0.00 0.00 0.00 0.00 0.00 0.00
0.00 0.00 0.00 0.00 0.00 0.00 0.00 0.00 0.00 0.00 0.00 0.00 0.00 0.00 0.00 0.00 0.00 0.00 0.00 0.00 0.00 0.00 0.00 0.00 0.00 0.00 0.00 0.00 0.00 0.00 0.00 0.00 0.00 0.00 0.00 0.00 0.00 0.00 0.00 0.00 0.00 0.00 0.00
0.00 0.00 0.00 0.00 0.00 0.00 0.00 0.00 0.00 0.00 0.00 0.00 0.00 0.00 0.00 0.00 0.00 0.00 0.00 0.00 0.00 0.00 0.00 0.00 0.00 0.00 0.00 0.00 0.00 0.00 0.00 0.00 0.00 0.00 0.00 0.00 0.00 0.00 0.00 0.00 0.00 0.00 0.00
0.00 0.00 0.00 0.00 0.00 0.00 0.00 0.00 0.00 0.00 0.00 0.00 0.00 0.00 0.00 0.00 0.00 0.00 0.00 0.00 0.00 0.00 0.00 0.00 0.00 0.00 0.00 0.00 0.00 0.00 0.00 0.00 0.00 0.00 0.00 0.00 0.00 0.00 0.00 0.00 0.00 0.00 0.00
0.00 0.00 0.00 0.00 0.00 0.00 0.00 0.00 0.00 0.00 0.00 0.00 0.00 0.00 0.00 0.00 0.00 0.00 0.00 0.00 0.00 0.00 0.00 0.00 0.00 0.00 0.00 0.00 0.00 0.00 0.00 0.00 0.00 0.00 0.00 0.00 0.00 0.00 0.00 0.00 0.00 0.00 0.00
0.00 0.00 0.00 0.00 0.00 0.00 0.00 0.00 0.00 0.00 0.00 0.00 0.00 0.00 0.00 0.00 0.00 0.00 0.00 0.00 0.00 0.00 0.00 0.00 0.00 0.00 0.00 0.00 0.00 0.00 0.00 0.00 0.00 0.00 0.00 0.00 0.00 0.00 0.00 0.00 0.00 0.00 0.00
0.00 0.00 0.00 0.00 0.00 0.00 0.00 0.00 0.00 0.00 0.00 0.00 0.00 0.00 0.00 0.00 0.00 0.00 0.00 0.00 0.00 0.00 0.00 0.00 0.00 0.00 0.00 0.00 0.00 0.00 0.00 0.00 0.00 0.00 0.00 0.00 0.00 0.00 0.00 0.00 0.00 0.00 0.00
0.00 0.00 0.00 0.00 0.00 0.00 0.00 0.00 0.00 0.00 0.00 0.00 0.00 0.00 0.00 0.00 0.00 0.00 0.00 0.00 0.00 0.00 0.00 0.00 0.00 0.00 0.00 0.00 0.00 0.00 0.00 0.00 0.00 0.00 0.00 0.00 0.00 0.00 0.00 0.00 0.00 0.00 0.00
0.00 0.00 0.00 0.00 0.00 0.00 0.00 0.00 0.00 0.00 0.00 0.00 0.00 0.00 0.00 0.00 0.00 0.00 0.00 0.00 0.00 0.00 0.00 0.00 0.00 0.00 0.00 0.00 0.00 0.00 0.00 0.00 0.00 0.00 0.00 0.00 0.00 0.00 0.00 0.00 0.00 0.00 0.00
0.00 0.00 0.00 0.00 0.00 0.00 0.00 0.00 0.00 0.00 0.00 0.00 0.00 0.00 0.00 0.00 0.00 0.00 0.00 0.00 0.00 0.00 0.00 0.00 0.00 0.00 0.00 0.00 0.00 0.00 0.00 0.00 0.00 0.00 0.00 0.00 0.00 0.00 0.00 0.00 0.01 0.01 0.00
0.00 0.00 0.00 0.00 0.00 0.00 0.00 0.00 0.00 0.00 0.00 0.00 0.00 0.00 0.00 0.00 0.00 0.00 0.00 0.00 0.00 0.00 0.00 0.00 0.00 0.00 0.00 0.00 0.00 0.00 0.00 0.00 0.00 0.00 0.00 0.00 0.00 0.00 0.00 0.01 0.01 0.01 0.00
0.00 0.00 0.00 0.00 0.00 0.00 0.00 0.00 0.00 0.00 0.00 0.00 0.00 0.00 0.00 0.00 0.00 0.00 0.00 0.00 0.00 0.00 0.00 0.00 0.00 0.00 0.00 0.00 0.00 0.00 0.00 0.01 0.01 0.00 0.00 0.00 0.00 0.00 0.00 0.01 0.01 0.02 0.01
0.00 0.00 0.00 0.00 0.00 0.00 0.00 0.00 0.00 0.00 0.00 0.00 0.00 0.00 0.00 0.00 0.00 0.00 0.00 0.00 0.00 0.00 0.00 0.00 0.00 0.00 0.00 0.00 0.00 0.00 0.00 0.01 0.01 0.01 0.01 0.01 0.01 0.01 0.00 0.00 0.01 0.02 0.03
0.00 0.00 0.00 0.00 0.00 0.00 0.00 0.00 0.00 0.00 0.00 0.00 0.00 0.00 0.00 0.00 0.00 0.00 0.00 0.01 0.01 0.01 0.01 0.01 0.00 0.00 0.00 0.00 0.00 0.00 0.00 0.00 0.00 0.00 0.00 0.00 0.01 0.02 0.02 0.01 0.00 0.01 0.02
0.00 0.00 0.00 0.00 0.00 0.00 0.00 0.00 0.00 0.00 0.00 0.00 0.01 0.00 0.00 0.00 0.00 0.00 0.00 0.02 0.01 0.01 0.03 0.03 0.02 0.03 0.03 0.01 0.01 0.03 0.03 0.02 0.01 0.00 0.00 0.00 0.00 0.00 0.01 0.02 0.01 0.00 0.00
0.00 0.00 0.00 0.00 0.00 0.00 0.00 0.00 0.00 0.00 0.01 0.01 0.00 0.00 0.00 0.00 0.01 0.01 0.00 0.00 0.01 0.01 0.02 0.02 0.03 0.03 0.03 0.02 0.04 0.07 0.08 0.08 0.09 0.10 0.09 0.03 0.00 0.00 0.00 0.01 0.01 0.00 0.00
MSLP
1013.91 1014.85 1015.77 1016.67 1017.48 1018.21 1018.71 1019.03 1019.36 1019.76 1019.93 1019.88 1019.94 1019.87 1019.92 1020.14 1020.47 1020.70 1021.23 1021.35 1021.39 1021.39 1021.33 1021.31 1021.25 1021.13 1021.05 1020.73 1020.15 1020.08 1020.06 1019.42 1018.71 1017.65 1016.64 1015.26 1014.11 1013.17 1013.14 1012.80 1012.69 1012.73 1012.41
1013.39 1014.42 1015.49 1016.48 1017.32 1017.95 1018.51 1019.06 1019.49 1019.80 1020.03 1020.24 1020.29 1020.39 1020.39 1020.38 1020.54 1020.84 1021.21 1021.43 1021.47 1021.44 1021.36 1021.23 1021.24 1021.17 1021.12 1020.98 1020.61 1020.11 1019.80 1019.63 1019.08 1018.45 1017.36 1015.54 1013.96 1013.70 1013.76 1013.05 1012.94 1012.77 1012.03
1012.90 1014.09 1015.21 1016.17 1017.07 1017.80 1018.45 1018.96 1019.51 1019.87 1020.13 1020.25 1020.19 1020.26 1020.35 1020.62 1020.64 1020.63 1020.82 1020.94 1021.32 1021.49 1021.49 1021.39 1021.20 1020.80 1021.05 1020.89 1020.71 1020.21 1019.59 1019.55 1019.71 1019.23 1019.12 1017.71 1016.48 1016.11 1013.66 1013.49 1013.46 1013.12 1012.73
1012.71 1013.82 1014.93 1015.77 1016.80 1017.55 1018.34 1019.00 1019.56 1019.87 1020.17 1020.32 1020.18 1020.22 1020.31 1020.26 1020.27 1020.66 1020.88 1021.09 1021.04 1021.11 1021.13 1021.17 1021.15 1020.74 1020.60 1020.70 1020.40 1019.98 1020.09 1019.78 1019.72 1019.63 1019.15 1018.95 1018.59 1017.73 1015.45 1014.18 1014.06 1013.85 1013.44
1012.82 1013.68 1014.82 1015.63 1016.56 1017.58 1018.46 1018.92 1019.32 1019.74 1020.13 1020.21 1020.27 1020.23 1020.17 1020.22 1020.37 1020.58 1020.76 1020.92 1020.80 1020.90 1020.94 1020.93 1020.96 1020.76 1020.41 1020.53 1020.51 1020.10 1019.87 1019.70 1019.68 1019.55 1019.21 1018.89 1018.44 1018.16 1017.58 1015.42 1014.50 1014.34 1013.91
1013.61 1014.38 1015.25 1015.98 1016.78 1017.73 1018.34 1018.85 1019.26 1019.63 1019.97 1020.16 1020.29 1020.30 1020.38 1020.50 1020.58 1020.62 1020.73 1020.65 1020.59 1020.58 1020.59 1020.58 1020.66 1020.63 1020.46 1020.43 1020.44 1020.20 1019.89 1019.43 1019.53 1019.55 1019.32 1018.84 1018.50 1018.13 1017.68 1017.00 1015.96 1015.69 1013.83
1014.29 1014.95 1015.63 1016.24 1016.82 1017.61 1018.17 1018.67 1019.11 1019.42 1019.82 1020.10 1020.22 1020.40 1020.53 1020.61 1020.65 1020.68 1020.67 1020.69 1020.48 1020.28 1020.29 1020.46 1020.45 1020.27 1020.17 1020.24 1020.22 1020.07 1019.85 1019.53 1019.15 1019.40 1019.16 1018.81 1018.35 1018.12 1017.88 1017.47 1016.61 1015.94 1015.07
1014.80 1015.24 1015.77 1016.29 1016.88 1017.50 1018.14 1018.57 1019.00 1019.33 1019.69 1019.91 1020.14 1020.36 1020.54 1020.55 1020.49 1020.58 1020.60 1020.55 1020.34 1020.20 1020.21 1020.24 1020.23 1020.09 1019.96 1019.90 1019.88 1019.83 1019.61 1019.38 1019.07 1018.75 1018.89 1018.63 1018.21 1017.98 1017.72 1017.60 1017.39 1016.44 1015.67
1014.91 1015.22 1015.67 1016.22 1016.74 1017.41 1018.04 1018.64 1019.07 1019.24 1019.35 1019.55 1019.85 1020.08 1020.22 1020.43 1020.48 1020.52 1020.50 1020.35 1020.12 1019.95 1019.83 1019.91 1019.91 1019.89 1019.75 1019.69 1019.64 1019.63 1019.34 1019.18 1018.83 1018.56 1018.55 1018.40 1018.00 1017.66 1017.37 1017.33 1017.61 1017.33 1016.33
1014.76 1015.07 1015.69 1016.30 1016.80 1017.37 1018.00 1018.52 1018.78 1019.04 1019.27 1019.48 1019.75 1019.93 1020.12 1020.29 1020.38 1020.40 1020.24 1020.11 1019.91 1019.67 1019.66 1019.63 1019.59 1019.54 1019.44 1019.37 1019.13 1019.03 1018.91 1018.77 1018.57 1018.23 1018.10 1017.86 1017.61 1017.32 1016.99 1016.76 1017.13 1017.19 1016.95
1014.91 1015.13 1015.67 1016.23 1016.86 1017.50 1018.02 1018.49 1018.90 1019.18 1019.46 1019.60 1019.67 1019.90 1020.02 1020.08 1020.03 1019.85 1019.70 1019.62 1019.44 1019.23 1019.12 1019.09 1019.07 1018.97 1018.88 1018.74 1018.57 1018.53 1018.39 1018.18 1018.08 1017.92 1017.68 1017.42 1017.26 1017.00 1016.65 1016.22 1016.33 1016.58 1016.52
1015.34 1015.40 1015.92 1016.48 1016.97 1017.27 1017.68 1018.26 1018.83 1019.33 1019.68 1019.79 1019.76 1019.79 1019.73 1019.64 1019.51 1019.32 1019.11 1018.93 1018.77 1018.65 1018.50 1018.43 1018.29 1018.23 1018.22 1018.18 1018.02 1017.81 1017.79 1017.52 1017.35 1017.23 1017.04 1016.79 1016.65 1016.41 1016.22 1015.99 1015.75 1015.85 1015.94
1016.64 1016.38 1016.90 1017.33 1017.63 1017.74 1018.15 1018.68 1018.94 1019.14 1019.31 1019.44 1019.48 1019.43 1019.28 1019.13 1018.82 1018.62 1018.50 1018.42 1018.23 1018.11 1018.02 1017.85 1017.55 1017.46 1017.34 1017.34 1017.28 1017.17 1017.03 1016.87 1016.64 1016.59 1016.46 1016.19 1016.07 1015.84 1015.68 1015.46 1015.29 1015.26 1015.27
1018.09 1018.07 1018.39 1018.31 1018.25 1018.48 1018.73 1018.86 1019.11 1019.16 1019.03 1018.93 1019.00 1019.00 1018.87 1018.65 1018.41 1018.20 1018.07 1017.94 1017.83 1017.59 1017.39 1017.23 1017.06 1016.96 1016.83 1016.67 1016.57 1016.41 1016.17 1016.06 1015.92 1015.82 1015.83 1015.67 1015.44 1015.21 1015.06 1014.90 1014.79 1014.81 1014.81
1019.51 1019.26 1019.23 1019.07 1019.05 1019.15 1019.19 1019.18 1019.04 1019.05 1019.03 1019.02 1018.92 1018.73 1018.43 1018.21 1018.02 1017.81 1017.58 1017.42 1017.19 1016.91 1016.80 1016.67 1016.41 1016.19 1016.09 1015.87 1015.62 1015.53 1015.47 1015.26 1015.14 1015.03 1014.97 1014.86 1014.73 1014.68 1014.58 1014.33 1014.20 1014.35 1014.36
1020.26 1020.20 1020.15 1019.91 1020.10 1019.91 1019.73 1019.61 1019.48 1019.19 1018.92 1018.72 1018.52 1018.31 1018.12 1017.97 1017.64 1017.38 1017.16 1016.96 1016.65 1016.34 1016.09 1015.83 1015.64 1015.37 1015.13 1014.87 1014.79 1014.76 1014.70 1014.59 1014.34 1014.09 1013.94 1013.89 1013.80 1013.76 1013.82 1013.73 1013.71 1013.86 1013.90
1020.84 1020.70 1020.63 1020.57 1020.35 1020.17 1020.02 1019.79 1019.41 1019.15 1018.85 1018.55 1018.15 1017.84 1017.57 1017.28 1017.03 1016.80 1016.58 1016.28 1015.88 1015.59 1015.20 1014.86 1014.73 1014.30 1014.10 1014.03 1013.94 1013.89 1013.83 1013.75 1013.52 1013.31 1013.07 1012.93 1012.89 1012.99 1012.98 1012.85 1012.77 1012.75 1012.83
1020.77 1020.76 1020.66 1020.54 1020.38 1020.16 1019.96 1019.62 1019.30 1018.90 1018.52 1018.10 1017.63 1017.37 1017.10 1016.71 1016.38 1016.18 1015.88 1015.54 1015.21 1014.73 1014.35 1013.99 1013.78 1013.50 1013.14 1013.19 1013.10 1013.06 1012.99 1012.84 1012.63 1012.49 1012.42 1012.24 1012.03 1012.06 1012.23 1012.20 1012.03 1012.08 1012.05
1020.52 1020.50 1020.45 1020.42 1020.22 1020.02 1019.71 1019.43 1018.99 1018.56 1017.97 1017.36 1017.00 1016.59 1016.49 1016.12 1015.83 1015.55 1015.30 1014.96 1014.58 1014.13 1013.74 1013.40 1013.14 1012.90 1012.47 1012.57 1012.38 1012.27 1012.17 1011.99 1011.76 1011.59 1011.54 1011.44 1011.23 1011.15 1011.22 1011.26 1011.30 1011.25 1011.40
1020.65 1020.39 1020.20 1020.15 1020.07 1019.82 1019.51 1019.03 1018.31 1018.12 1017.49 1016.92 1016.49 1016.26 1016.04 1015.68 1015.42 1015.18 1014.78 1014.42 1014.11 1013.54 1013.35 1012.89 1012.70 1012.33 1011.85 1011.83 1011.47 1011.30 1011.28 1011.13 1011.00 1010.86 1010.55 1010.45 1010.20 1010.30 1010.29 1010.27 1010.38 1010.17 1010.43
1020.41 1020.22 1020.15 1019.94 1019.65 1019.47 1019.17 1018.63 1018.11 1017.79 1017.27 1016.70 1016.23 1015.79 1015.45 1015.23 1014.90 1014.43 1014.15 1013.74 1013.45 1013.15 1012.79 1012.39 1012.09 1011.79 1011.39 1010.92 1010.62 1010.38 1010.26 1010.15 1010.02 1009.83 1009.53 1009.34 1009.27 1009.13 1009.23 1009.27 1009.38 1009.12 1009.48
1020.09 1020.06 1019.88 1019.55 1019.33 1019.28 1019.03 1018.44 1018.01 1017.51 1016.96 1016.45 1015.87 1015.36 1015.02 1014.66 1014.35 1013.94 1013.51 1013.28 1013.02 1012.59 1012.13 1011.74 1011.24 1010.78 1010.34 1009.95 1009.61 1009.37 1009.31 1009.25 1009.06 1008.71 1008.44 1008.31 1008.25 1008.22 1008.30 1008.38 1008.29 1008.21 1008.18
1020.06 1019.94 1019.97 1019.50 1019.17 1019.08 1018.91 1018.39 1017.77 1017.31 1016.74 1016.11 1015.49 1015.07 1014.63 1014.26 1013.90 1013.47 1013.01 1012.67 1012.36 1011.92 1011.44 1010.95 1010.39 1009.90 1009.53 1009.25 1008.87 1008.37 1008.18 1008.04 1007.88 1007.74 1007.50 1007.35 1007.21 1007.19 1007.18 1007.35 1007.51 1007.41 1007.14
1020.12 1019.99 1019.95 1019.65 1019.17 1019.10 1018.90 1018.44 1017.78 1017.23 1016.54 1015.86 1015.32 1014.84 1014.32 1013.73 1013.31 1012.96 1012.61 1012.22 1011.83 1011.36 1010.84 1010.32 1009.79 1009.27 1008.83 1008.36 1008.00 1007.66 1007.44 1007.17 1006.84 1006.61 1006.37 1006.27 1006.27 1006.26 1006.22 1006.31 1006.40 1006.49 1006.51
1020.21 1020.21 1020.13 1019.78 1019.30 1018.92 1018.47 1018.08 1017.57 1016.99 1016.27 1015.71 1015.06 1014.40 1013.87 1013.38 1012.91 1012.52 1012.10 1011.69 1011.21 1010.87 1010.25 1009.66 1009.12 1008.49 1007.78 1007.33 1007.03 1006.82 1006.52 1006.14 1005.76 1005.60 1005.52 1005.45 1005.37 1005.28 1005.30 1005.40 1005.45 1005.65 1005.82
1020.32 1020.23 1020.12 1019.89 1019.34 1018.83 1018.26 1017.76 1017.31 1016.82 1016.21 1015.46 1014.64 1014.10 1013.53 1013.02 1012.57 1012.08 1011.34 1010.81 1010.21 1009.72 1009.26 1008.63 1008.08 1007.51 1006.92 1006.35 1006.00 1005.67 1005.36 1004.98 1004.76 1004.64 1004.43 1004.47 1004.51 1004.47 1004.48 1004.40 1004.40 1004.44 1004.61
Thickness
5623 5617 5611 5603 5595 5589 5584 5580 5576 5571 5568 5567 5565 5564 5562 5559 5554 5549 5544 5542 5540 5537 5535 5531 5529 5528 5527 5527 5529 5528 5525 5528 5533 5542 5549 5556 5561 5566 5561 5569 5578 5584 5591
5619 5612 5603 5595 5588 5582 5576 5571 5566 5562 5558 5554 5552 5550 5548 5546 5543 5537 5532 5529 5527 5526 5524 5522 5519 5516 5514 5513 5513 5516 5516 5515 5517 5522 5530 5545 5552 5546 5541 5550 5561 5571 5582
5614 5605 5596 5588 5581 5574 5567 5562 5556 5552 5548 5544 5543 5540 5537 5533 5530 5527 5522 5520 5515 5513 5512 5510 5509 5509 5503 5502 5501 5502 5506 5504 5497 5500 5501 5510 5518 5512 5529 5533 5540 5553 5562
5609 5600 5590 5583 5574 5567 5559 5552 5546 5542 5538 5534 5534 5530 5527 5525 5522 5516 5511 5506 5504 5502 5500 5497 5496 5497 5495 5491 5491 5492 5488 5488 5486 5482 5486 5486 5487 5488 5503 5513 5521 5532 5543
5601 5594 5584 5577 5569 5559 5549 5544 5539 5533 5527 5525 5522 5519 5517 5513 5509 5504 5499 5495 5493 5490 5487 5486 5483 5482 5483 5479 5476 5478 5478 5477 5476 5473 5472 5474 5476 5477 5476 5490 5504 5514 5526
5588 5581 5573 5566 5558 5548 5541 5535 5529 5523 5518 5512 5508 5505 5501 5496 5491 5488 5485 5483 5481 5478 5476 5473 5471 5468 5466 5464 5461 5461 5463 5466 5464 5461 5459 5463 5463 5464 5466 5468 5479 5489 5513
5574 5567 5560 5553 5548 5539 5531 5525 5518 5512 5505 5499 5495 5489 5485 5480 5476 5473 5470 5466 5465 5464 5461 5458 5456 5455 5453 5449 5448 5448 5448 5450 5453 5448 5449 5450 5452 5453 5453 5453 5461 5474 5490
5561 5555 5549 5543 5537 5529 5520 5513 5506 5499 5492 5486 5480 5475 5469 5465 5462 5458 5454 5451 5449 5448 5445 5442 5440 5438 5437 5436 5434 5433 5434 5435 5437 5439 5437 5439 5441 5441 5442 5441 5442 5455 5470
5550 5546 5541 5533 5525 5515 5506 5496 5488 5483 5479 5473 5466 5460 5454 5448 5444 5440 5438 5435 5434 5432 5430 5427 5424 5421 5420 5419 5418 5416 5417 5419 5422 5425 5426 5427 5430 5432 5433 5432 5429 5435 5448
5544 5539 5529 5520 5511 5502 5492 5483 5476 5471 5464 5458 5451 5445 5438 5432 5427 5422 5420 5418 5415 5414 5412 5408 5406 5404 5403 5402 5404 5403 5403 5404 5407 5412 5414 5417 5419 5422 5424 5425 5421 5424 5434
5531 5524 5515 5506 5495 5484 5475 5467 5460 5453 5445 5439 5433 5426 5420 5416 5412 5408 5404 5400 5398 5396 5394 5392 5390 5389 5389 5389 5390 5390 5390 5392 5394 5396 5401 5405 5407 5410 5413 5417 5416 5416 5426
5517 5511 5501 5490 5479 5472 5464 5454 5444 5433 5425 5419 5413 5408 5403 5399 5394 5389 5386 5383 5382 5380 5378 5377 5377 5376 5374 5374 5374 5376 5375 5378 5381 5384 5389 5393 5396 5400 5403 5405 5409 5410 5416
5490 5488 5475 5466 5458 5452 5443 5433 5426 5418 5410 5402 5395 5389 5383 5379 5376 5373 5369 5366 5364 5363 5361 5360 5362 5362 5362 5361 5360 5360 5362 5364 5367 5370 5375 5380 5383 5388 5391 5394 5398 5401 5406
5451 5448 5440 5440 5436 5427 5419 5411 5403 5395 5389 5383 5376 5369 5364 5361 5358 5356 5353 5349 5347 5346 5344 5344 5344 5343 5342 5343 5343 5343 5347 5349 5351 5354 5358 5363 5369 5375 5379 5383 5386 5390 5395
5424 5424 5418 5416 5410 5401 5395 5388 5383 5375 5368 5362 5357 5352 5349 5345 5342 5338 5335 5332 5330 5329 5326 5325 5325 5324 5322 5323 5324 5323 5325 5330 5333 5337 5343 5348 5353 5359 5364 5371 5375 5377 5383
5404 5398 5391 5389 5379 5374 5368 5363 5358 5354 5350 5346 5342 5337 5332 5328 5324 5320 5316 5313 5310 5308 5306 5305 5303 5302 5301 5300 5298 5295 5297 5302 5306 5314 5321 5328 5337 5344 5350 5357 5362 5365 5371
5378 5371 5366 5360 5356 5352 5348 5346 5344 5338 5334 5330 5326 5321 5316 5313 5308 5304 5300 5295 5292 5289 5286 5284 5278 5278 5276 5272 5270 5267 5268 5273 5279 5286 5296 5304 5315 5324 5334 5343 5351 5357 5364
5361 5354 5348 5343 5339 5334 5331 5329 5324 5320 5316 5311 5307 5303 5299 5297 5292 5286 5281 5276 5270 5267 5263 5260 5255 5253 5255 5250 5249 5247 5248 5252 5259 5265 5271 5281 5293 5304 5314 5324 5336 5344 5352
5346 5341 5335 5327 5320 5314 5311 5308 5306 5302 5300 5298 5295 5290 5282 5279 5273 5265 5258 5253 5248 5246 5243 5240 5237 5236 5238 5233 5233 5232 5232 5235 5241 5248 5253 5261 5274 5285 5296 5308 5320 5332 5340
5327 5323 5318 5312 5304 5298 5295 5293 5293 5288 5284 5281 5276 5268 5259 5254 5249 5243 5239 5236 5230 5230 5227 5226 5224 5224 5226 5222 5223 5221 5219 5221 5226 5231 5239 5246 5258 5268 5280 5292 5305 5323 5331
5311 5306 5301 5296 5290 5285 5280 5279 5275 5268 5264 5259 5254 5248 5243 5236 5232 5229 5225 5222 5219 5217 5215 5215 5213 5213 5213 5214 5212 5211 5206 5208 5212 5220 5227 5236 5244 5256 5267 5279 5294 5313 5321
5300 5293 5289 5286 5279 5269 5262 5260 5255 5250 5245 5241 5238 5234 5228 5222 5217 5215 5214 5210 5207 5206 5205 5205 5206 5206 5205 5204 5204 5201 5197 5196 5200 5211 5219 5226 5234 5244 5256 5268 5286 5302 5316
5285 5280 5272 5269 5264 5255 5247 5244 5240 5234 5231 5228 5224 5219 5215 5210 5206 5204 5203 5200 5198 5197 5197 5197 5198 5197 5196 5194 5194 5195 5193 5193 5196 5204 5211 5218 5225 5235 5249 5262 5276 5293 5310
5270 5264 5257 5253 5249 5239 5232 5225 5221 5218 5215 5213 5210 5206 5203 5202 5198 5195 5192 5191 5188 5187 5187 5187 5186 5187 5186 5186 5187 5187 5186 5189 5194 5200 5206 5212 5219 5229 5244 5258 5273 5287 5302
5255 5248 5240 5235 5232 5227 5221 5212 5208 5205 5204 5202 5200 5199 5196 5192 5189 5186 5183 5180 5178 5176 5176 5176 5177 5178 5181 5182 5182 5182 5184 5187 5192 5196 5201 5207 5215 5227 5241 5254 5270 5283 5296
5240 5234 5228 5221 5218 5213 5208 5204 5200 5197 5194 5194 5194 5190 5187 5182 5179 5176 5177 5174 5175 5175 5174 5174 5175 5177 5179 5180 5181 5182 5184 5188 5191 5193 5201 5206 5214 5226 5239 5255 5270 5284 5297